Weather Roundup
Issued by NWS Chicago, IL

Home | Current Version | Previous Version | Text Only | Print | Product List | Glossary On
Versions: 1 2 3 4 5 6 7 8 9 10 11 12 13 14 15 16 17 18 19 20 21 22 23 24 25 26 27 28 29 30 31 32 33 34 35 36 37 38 39 40 41 42 43 44 45 46 47 48 49 50
000
NZUS59 KLOT 230909
HRRLOT

CHICAGO AREA WEATHER ROUNDUP
NATIONAL WEATHER SERVICE CHICAGO/ROMEOVILLE IL
400 AM CDT TUE MAY 23 2017

NOTE: "FAIR" INDICATES FEW OR NO CLOUDS BELOW 12,000 FEET WITH NO
SIGNIFICANT WEATHER AND/OR OBSTRUCTIONS TO VISIBILITY.

* THESE STATIONS ARE NOT UNDER NWS QUALITY CONTROL. THEY ALSO MAY NOT
  REPORT WEATHER SUCH AS PRECIPITATION OR FOG.

ILZ005-006-012>014-019>023-231000-
NORTHEAST ILLINOIS

CITY           SKY/WX    TMP DP  RH WIND       PRES   REMARKS
OHARE          CLOUDY    59  53  80 SW7       29.82F
MIDWAY         CLOUDY    60  54  80 S9        29.83F
AURORA         CLOUDY    58  54  86 S8        29.83S
LANSING*       CLOUDY    59  55  86 SW10      29.85F
WAUKEGAN       CLOUDY    58  54  86 SW9       29.81S
DUPAGE AIRPORT CLOUDY    58  55  90 S9        29.82S
WHEELING       CLOUDY    58  55  90 SW6       29.83S
KANKAKEE*      CLOUDY    58  53  83 CALM      29.86F
MORRIS*        CLOUDY    58  53  83 SW3       29.83S
LEWIS AIRPORT* CLOUDY    58  56  91 SW13      29.84S
NORTHERLY ISL    N/A     60  52  74 S10         N/A
$$

WIZ051-052-058>065-066-070>072-231000-
SOUTHEAST WISCONSIN

CITY           SKY/WX    TMP DP  RH WIND       PRES   REMARKS
MILWAUKEE      CLOUDY    59  55  87 SW8       29.79F
KENOSHA*       CLOUDY    59  53  80 S9        29.80F
RACINE*        CLOUDY    57  53  86 SW7       29.81F
WAUKESHA       CLOUDY    54  52  94 S5        29.79F
WEST BEND      CLOUDY    54  54 100 S5        29.77F
$$

INZ001>003-010>013-019-020-231000-
NORTHWEST INDIANA

CITY           SKY/WX    TMP DP  RH WIND       PRES   REMARKS
GARY*          CLOUDY    62  53  72 CALM      29.85S
MICHIGAN CITY* NOT AVBL
RENSSELAER*    NOT AVBL
VALPARAISO     CLOUDY    60  54  80 S9        29.86F
$$

LMZ740>746-231000-
SOUTHERN LAKE MICHIGAN

STATION/POSITION TIME  SKY/WX   TEMP WIND        PRES    VSBY
                                AIR  DIR/SP/G
                 (UTC)          (F)  (DEG/KT/KT) (MB)    (MI)
HARRISON CRIB    0840            61  200/ 18/ 19   N/A
BURNHAM HARBOR   0900            60  210/  6/ 12   N/A
CALUMET HARBOR   0848            61  200/  8/ 11 1009.9F
BURNS HARBOR     0840            60  190/ 11/ 13 1011.2F
MICHIGAN CITY    0840            60  170/ 11/ 13   N/A
$$

ABBREVIATIONS USED IN REMARKS
   TC - TEMPERATURE IN CELSIUS
  WCI - WIND CHILL INDEX
   HX - HEAT INDEX
  VSB - VISIBILITY
$$




USA.gov is the U.S. government's official web portal to all federal, state and local government web resources and services.